Weather History for Newark Heath, OH

Change the Weather History Date:

Thursday, May 9, 2013

  Actual Average Record
Temperature  
Mean Temperature 60 °F -  
Max Temperature 75 °F 69 °F 89 °F (1936)
Min Temperature 46 °F 47 °F 26 °F (1947)
Degree Days  
Heating Degree Days 4    
Growing Degree Days 10 (Base 50)    
Moisture  
Dew Point 51 °F    
Average Humidity 85    
Maximum Humidity 100    
Minimum Humidity 43    
Precipitation  
Precipitation 0.01 in - - ()
Sea Level Pressure  
Sea Level Pressure 29.97 in    
Wind  
Wind Speed 1 mph (WSW)    
Max Wind Speed 12 mph    
Max Gust Speed -    
Visibility 4 miles    
Events Fog    
Averages and records for this station are not official NWS values.
T = Trace of Precipitation, MM = Missing Value Source: NWS Daily Summary

Daily Weather History Graph

Daily Weather History Graph

Search for Another Location

Airport:

Trip Planner

Search our weather history database for the weather conditions in past years. The results will help you decide how hot, cold, wet, or windy it might be!

Date:

Astronomy

May. 09, 2013 Rise Set
Actual Time 6:20 AM EDT 8:32 PM EDT
Civil Twilight 5:50 AM EDT 9:03 PM EDT
Nautical Twilight 5:13 AM EDT 9:40 PM EDT
Astronomical Twilight 4:32 AM EDT 10:20 PM EDT
Moon 6:04 AM EDT (5/9) 8:26 PM EDT (5/9)
Length of Visible Light 15h 12m
Length of Day
14h 12m
Waning Crescent, 0% of the Moon is Illuminated
May 9
Waning Crescent
May 9
New
May 18
First Quarter
May 25
Full
May 31
Last Quarter

Hourly Weather History & Observations

Time (EDT) Temp. Dew Point Humidity Pressure Visibility Wind Dir Wind Speed Gust Speed Precip Events Conditions
12:14 AM 55.4 °F 53.6 °F 94% 29.97 in 3.0 mi Calm Calm - N/A   Mostly Cloudy
12:52 AM 55.4 °F 53.6 °F 94% 29.97 in 1.8 mi Calm Calm - N/A   Clear
12:54 AM 55.0 °F 54.0 °F 96% 29.97 in 1.5 mi Calm Calm - N/A   Clear
1:01 AM 53.6 °F 53.6 °F 100% 29.97 in 0.5 mi Calm Calm - N/A Fog Fog
1:31 AM 51.8 °F 51.8 °F 100% 29.97 in 0.2 mi Calm Calm - N/A Fog Fog
1:54 AM 53.1 °F 52.0 °F 96% 29.96 in 0.2 mi Calm Calm - N/A Fog Fog
2:04 AM 51.8 °F 51.8 °F 100% 29.96 in 0.5 mi Calm Calm - N/A Fog Fog
2:11 AM 51.8 °F 51.8 °F 100% 29.95 in 0.2 mi Calm Calm - N/A Fog Fog
2:54 AM 51.1 °F 50.0 °F 96% 29.94 in 1.2 mi Calm Calm - N/A   Scattered Clouds
3:11 AM 51.8 °F 50.0 °F 94% 29.95 in 1.5 mi Calm Calm - N/A   Partly Cloudy
3:13 AM 51.8 °F 50.0 °F 94% 29.95 in 0.8 mi Calm Calm - N/A   Mist
3:24 AM 50.0 °F 48.2 °F 94% 29.95 in 0.2 mi Calm Calm - N/A Fog Fog
3:54 AM 48.9 °F 48.0 °F 97% 29.94 in 0.5 mi Calm Calm - N/A Fog Fog
4:03 AM 50.0 °F 48.2 °F 94% 29.95 in 0.2 mi Calm Calm - N/A Fog Fog
4:37 AM 50.0 °F 48.2 °F 94% 29.95 in 0.8 mi Calm Calm - N/A   Mist
4:50 AM 48.2 °F 48.2 °F 100% 29.95 in 0.2 mi Calm Calm - N/A Fog Fog
4:54 AM 48.9 °F 48.0 °F 97% 29.95 in 0.5 mi Calm Calm - N/A Fog Fog
5:06 AM 48.2 °F 48.2 °F 100% 29.95 in 0.2 mi Calm Calm - N/A Fog Fog
5:23 AM 48.2 °F 46.4 °F 93% 29.96 in 0.5 mi Calm Calm - N/A Fog Fog
5:39 AM 48.2 °F 46.4 °F 93% 29.96 in 2.5 mi Calm Calm - N/A   Mostly Cloudy
5:49 AM 46.4 °F 46.4 °F 100% 29.96 in 1.0 mi Calm Calm - N/A   Mist
5:54 AM 46.9 °F 46.0 °F 97% 29.96 in 0.8 mi Calm Calm - N/A   Mist
6:01 AM 48.2 °F 46.4 °F 93% 29.96 in 2.5 mi Calm Calm - N/A   Mostly Cloudy
6:05 AM 48.2 °F 46.4 °F 93% 29.97 in 5.0 mi Calm Calm - N/A   Scattered Clouds
6:14 AM 48.2 °F 46.4 °F 93% 29.97 in 1.8 mi Calm Calm - N/A   Scattered Clouds
6:16 AM 48.2 °F 46.4 °F 93% 29.97 in 0.8 mi Calm Calm - N/A   Mist
6:22 AM 48.2 °F 46.4 °F 93% 29.98 in 0.2 mi Calm Calm - N/A Fog Fog
6:54 AM 46.9 °F 46.0 °F 97% 29.99 in 0.2 mi Calm Calm - N/A Fog Fog
7:10 AM 48.2 °F 48.2 °F 100% 29.99 in 1.2 mi Calm Calm - N/A   Clear
7:13 AM 48.2 °F 48.2 °F 100% 29.99 in 3.0 mi Calm Calm - N/A   Clear
7:21 AM 48.2 °F 48.2 °F 100% 30.00 in 2.0 mi Calm Calm - N/A   Clear
7:42 AM 51.8 °F 51.8 °F 100% 30.00 in 4.0 mi Calm Calm - 0.01 in   Clear
7:54 AM 54.0 °F 53.1 °F 97% 30.00 in 6.0 mi Calm Calm - 0.01 in   Clear
8:54 AM 60.1 °F 55.9 °F 86% 29.99 in 10.0 mi SSE 3.5 mph - N/A   Clear
9:54 AM 68.0 °F 59.0 °F 73% 29.99 in 10.0 mi Calm Calm - N/A   Clear
10:54 AM 72.0 °F 55.9 °F 57% 30.00 in 10.0 mi NW 9.2 mph - N/A   Clear
11:54 AM 73.9 °F 57.0 °F 55% 30.00 in 10.0 mi West 5.8 mph - N/A   Partly Cloudy
1:54 PM 75.9 °F 57.0 °F 52% 29.99 in 10.0 mi WSW 11.5 mph - N/A   Scattered Clouds
2:54 PM 75.9 °F 57.0 °F 52% 29.98 in 10.0 mi SW 8.1 mph - N/A   Scattered Clouds
3:54 PM 75.9 °F 57.0 °F 52% 29.97 in 10.0 mi Variable 5.8 mph - N/A   Mostly Cloudy
4:54 PM 75.9 °F 57.9 °F 54% 29.95 in 10.0 mi WSW 3.5 mph - N/A   Clear
5:54 PM 75.9 °F 52.0 °F 43% 29.94 in 10.0 mi West 6.9 mph - N/A   Clear
6:54 PM 73.9 °F 52.0 °F 46% 29.95 in 10.0 mi SW 5.8 mph - N/A   Scattered Clouds
7:54 PM 72.0 °F 52.0 °F 49% 29.95 in 10.0 mi SW 3.5 mph - N/A   Partly Cloudy
8:54 PM 66.9 °F 54.0 °F 63% 29.95 in 10.0 mi Calm Calm - N/A   Partly Cloudy
9:54 PM 62.1 °F 55.9 °F 80% 29.96 in 10.0 mi Calm Calm - N/A   Partly Cloudy
10:54 PM 62.1 °F 55.0 °F 78% 29.96 in 10.0 mi Calm Calm - N/A   Clear
11:54 PM 62.1 °F 55.0 °F 78% 29.96 in 10.0 mi Calm Calm - N/A   Mostly Cloudy